カタログに戻る

CAKRA-1

運用中科学SSO
NORAD 60510·PAYLOAD·🇮🇩 Indonesia
この衛星名は、まだ公式ソースで確認されていません。

打ち上げ Aug 16, 2024 から Vandenberg Space Force Base

Loading…

次のパス (今後24時間)

TLE

最新Source: Space-Track

元期: Sep 14, 2026, 04:35 UTC

1 60510U 24149AU  26257.19155545  .00011946  00000-0  27735-3 0  9997
2 60510  97.3684 341.7471 0002751 350.1839   9.9355 15.42518674116026

AllMySatでCAKRA-1をリアルタイム追跡

Download on the App Store